RH
62 62 53 58 64 62 69 79 89 77 79 76 73 71 72 75 72 73 76 81 83 88 95 97 78 68 64 54 60 72 68 75 82 97 98 97 98 98
62 66 57 51 62 72 85 95 99 98 95 86 89 85 92 92 84 85 84 83 84 97 94 68 73 73 56 48 54 63 58 55 74 95 97 98 98 98
63 70 90 94 86 89 96 95 97 95 98 95 98 100 96 94 91 88 85 91 98 91 80 75 63 66 60 53 56 39 61 60 64 91 96 97 97 98
86 81 89 98 99 79 96 97 96 95 98 99 97 100 96 94 98 90 100 99 97 75 85 71 57 53 63 44 36 49 58 63 73 85 96 99 99 100
74 82 88 94 95 92 96 96 96 98 96 98 96 97 93 95 97 98 99 94 86 78 88 73 47 60 49 31 45 64 68 75 81 80 95 95 96 100
71 70 60 81 94 97 96 94 87 92 97 97 98 94 98 98 97 98 100 96 78 74 81 72 54 58 32 28 48 49 71 91 98 93 95 97 100 100
83 73 69 65 99 83 94 94 86 80 93 96 97 75 96 97 100 98 94 77 69 79 90 80 62 56 40 35 44 55 71 82 84 98 100 97 100 100
94 92 96 99 79 94 84 93 85 82 94 94 96 87 98 98 98 98 85 71 85 98 94 80 74 56 43 43 58 51 48 68 87 89 97 97 100 100
76 78 94 84 96 98 96 96 98 84 94 97 98 92 94 86 89 95 91 100 97 98 80 71 69 55 56 59 61 47 40 71 78 80 92 98 100 100
85 99 96 96 98 94 98 99 88 93 90 94 94 98 97 98 91 98 99 95 90 94 83 77 74 65 61 61 56 57 66 87 100 100 100 100 100 100
99 88 97 98 94 98 80 97 98 96 98 90 98 98 91 84 93 100 100 96 84 81 76 75 77 72 68 63 50 51 63 79 100 96 99 100 100 100
86 86 95 97 100 100 97 98 98 98 99 98 99 98 95 97 98 98 96 91 75 64 70 64 76 74 71 52 42 64 96 100 100 99 100 100 100 100
86 90 88 98 95 99 98 98 98 98 96 96 98 98 96 100 100 99 99 81 88 91 100 87 83 60 36 32 33 55 99 100 100 100 100 100 100 99
98 98 98 97 98 97 97 98 97 99 99 99 98 96 97 98 96 91 91 95 98 84 65 39 18 10 10 9 11 30 54 75 95 98 100 100 100 100
98 98 99 100 100 98 99 98 98 99 98 98 96 100 100 100 99 93 90 81 70 62 54 48 46 54 60 43 23 26 57 76 85 97 100 100 100 100
99 99 99 98 96 95 96 94 96 98 100 100 100 100 99 96 94 89 80 75 73 70 66 65 58 43 32 24 19 28 54 88 100 99 100 100 100 100
99 99 99 99 97 88 93 100 100 100 98 92 85 75 59 43 33 24 20 21 22 23 26 29 24 21 21 22 36 69 80 60 55 70 100 100 100 100
96 100 100 100 100 100 100 98 94 85 65 46 34 21 11 6 5 5 5 6 8 8 7 6 6 5 15 38 37 66 77 96 73 92 100 100 100 100
100 99 95 90 89 70 43 21 9 5 5 4 5 6 6 6 6 5 5 5 6 8 11 9 9 13 18 22 66 92 100 100 72 84 100 100 100 100
55 36 24 15 8 5 5 7 9 10 9 8 8 7 8 8 6 6 6 7 8 8 8 7 10 78 56 100 100 100 100 100 100 100 100 100 100 100
14 8 6 6 6 6 6 8 12 18 21 15 15 12 10 9 8 7 9 13 8 9 12 15 16 70 100 100 100 100 100 98 100 100 100 100 100 100
9 7 7 8 7 9 18 21 20 22 22 17 12 10 11 15 18 15 10 11 23 37 50 53 38 84 100 100 100 100 100 100 100 98 100 100 100 100
10 9 11 15 23 21 18 18 17 14 10 8 8 16 25 35 16 12 14 21 41 74 89 85 100 100 99 99 97 100 100 100 100 100 100 100 100 100
Wind_Speed
60 61 60 61 60 63 60 60 63 64 60 59 58 55 52 49 46 45 42 45 43 46 49 42 39 44 43 44 43 44 41 46 52 58 56 54 55 50
65 65 64 68 69 70 67 66 68 67 65 61 62 59 57 48 46 46 45 45 44 47 43 38 40 36 36 41 42 40 43 46 47 49 51 53 52 47
69 60 62 67 63 64 68 67 71 70 67 68 64 64 58 50 46 47 46 46 47 43 38 44 36 36 39 40 42 43 43 46 45 46 49 49 49 47
66 62 64 68 67 72 66 74 66 68 68 69 72 58 61 47 45 45 45 42 48 42 41 41 42 41 39 41 44 46 43 46 45 48 46 49 46 46
76 75 69 72 66 80 69 50 56 55 66 68 65 53 54 47 51 53 50 46 45 45 44 41 43 43 43 42 45 48 48 49 48 47 46 48 49 46
78 78 80 73 73 69 60 62 59 62 62 67 59 64 53 53 50 52 49 46 48 47 44 46 46 44 43 42 41 48 51 48 46 46 48 49 50 47
78 81 80 82 79 75 63 58 62 67 63 63 47 46 54 53 54 54 47 50 50 51 49 46 48 49 47 43 46 49 51 45 43 45 45 46 48 45
77 85 52 73 81 57 78 57 66 59 64 59 52 49 55 47 51 47 49 49 52 53 49 49 52 51 48 48 48 52 50 47 44 41 44 42 46 44
68 81 68 67 60 56 59 63 59 70 71 59 53 58 47 50 56 55 52 55 51 49 50 54 54 51 48 49 52 49 52 48 44 43 44 45 47 46
73 66 50 52 48 60 51 58 59 61 52 56 60 48 50 55 50 54 53 48 51 51 55 56 54 52 51 52 53 53 51 48 45 44 42 46 50 49
62 68 57 63 62 63 70 70 66 68 54 59 53 51 52 56 55 54 47 50 53 54 56 57 53 53 55 55 54 53 52 52 47 47 46 49 51 51
58 60 62 61 53 54 59 60 53 47 50 55 55 56 55 57 51 52 54 54 56 58 58 60 56 57 55 55 55 51 49 47 48 50 50 50 53 53
56 53 48 51 49 58 50 44 46 53 55 59 53 51 52 50 55 56 56 57 58 59 58 58 54 53 54 52 52 51 49 48 47 48 50 51 52 53
50 52 54 55 53 56 51 49 54 55 51 50 51 54 55 58 58 60 60 58 57 52 49 49 48 49 50 48 47 49 48 50 49 51 50 49 51 51
46 48 46 48 48 46 44 44 46 46 51 52 55 57 59 58 55 49 46 44 42 43 44 46 47 48 47 47 47 47 48 48 49 51 51 51 51 50
43 38 34 36 39 39 39 42 47 58 52 58 60 58 49 44 39 38 39 41 43 45 46 48 48 49 48 47 47 48 51 47 47 48 48 50 50 45
34 39 40 41 37 42 44 46 46 38 33 32 27 28 30 34 36 39 41 43 44 46 47 48 48 49 48 45 46 49 51 50 50 50 49 51 53 47
32 39 36 42 41 35 24 20 20 21 22 24 25 29 31 34 37 40 44 48 50 51 52 52 53 53 49 50 49 47 44 44 44 47 49 49 50 45
29 22 16 12 12 15 17 17 21 24 27 27 29 32 35 37 42 46 49 52 54 55 54 55 56 54 53 52 50 48 47 45 46 43 45 47 47 44
15 15 16 17 18 19 21 24 27 30 33 37 38 39 41 45 47 49 51 54 55 58 59 58 55 57 57 53 51 51 51 48 47 48 46 45 45 42
19 20 20 22 24 26 28 32 36 40 40 41 43 47 47 49 52 54 54 55 56 56 56 54 52 53 57 54 52 51 48 47 47 44 41 39 40 41
24 26 29 32 34 35 37 38 39 41 43 45 48 49 48 49 49 48 48 48 48 51 53 52 51 53 51 56 45 44 46 43 38 38 38 37 37 39
29 32 34 37 38 38 38 39 41 44 46 46 47 48 46 43 42 41 44 44 47 48 47 45 44 43 47 47 46 42 39 37 36 37 38 37 39 40
Wind_Direction
260 261 263 263 261 263 261 260 261 262 263 265 266 266 267 268 271 274 277 277 281 285 289 276 276 281 282 291 289 294 294 282 275 275 280 273 275 275
258 258 260 266 263 263 262 258 255 256 258 262 262 262 262 263 269 273 274 275 276 278 278 272 279 284 284 292 292 298 297 291 282 278 283 277 274 268
259 265 263 265 264 268 266 258 253 256 258 261 260 259 260 262 266 270 272 276 277 275 270 278 279 281 285 293 290 294 293 295 284 278 279 277 279 278
262 258 261 260 264 275 265 258 255 256 245 261 253 250 260 265 264 264 271 273 274 270 271 271 280 281 283 290 288 291 292 292 292 284 280 281 282 278
260 262 266 263 268 269 269 263 276 277 255 271 246 247 263 256 268 269 269 268 267 270 269 276 283 281 285 287 284 287 289 291 289 288 283 283 280 273
264 263 265 265 263 264 271 267 275 281 262 253 250 259 263 260 266 266 268 266 266 271 270 280 281 277 283 281 278 280 285 288 290 286 286 283 277 270
262 264 259 266 262 269 266 264 272 277 273 247 245 246 254 256 259 264 266 270 268 267 268 274 276 278 280 279 278 281 284 286 285 287 284 284 274 268
261 261 251 260 269 248 261 263 270 273 267 247 246 247 250 261 268 263 265 263 261 266 272 277 278 277 279 280 277 277 277 279 282 281 281 277 269 270
266 259 253 255 264 265 252 249 264 269 267 250 248 250 251 260 262 265 262 268 269 270 277 277 280 277 276 275 270 268 271 274 275 273 273 269 262 265
266 274 250 251 261 261 257 256 256 255 253 258 244 251 255 264 263 265 262 264 274 277 280 281 279 278 277 274 276 275 277 274 273 270 271 270 264 264
261 267 270 265 263 262 265 255 257 260 244 252 248 253 252 258 258 264 261 269 274 279 281 282 281 276 276 275 273 272 274 276 275 275 271 270 266 261
265 260 269 263 265 249 248 243 243 249 243 246 254 256 253 255 258 267 273 273 275 277 277 276 273 274 273 272 272 274 276 277 278 278 275 272 268 265
261 259 254 257 252 250 239 234 232 232 240 244 246 252 258 265 268 269 269 270 271 270 269 268 268 268 268 269 270 272 274 275 276 275 276 276 275 272
253 249 252 248 245 234 228 231 237 241 243 249 253 264 264 265 266 268 268 268 266 268 268 271 272 272 274 273 274 271 270 271 273 274 273 273 272 270
244 249 241 235 231 228 235 242 244 246 247 254 259 259 261 263 264 263 263 266 269 274 278 278 279 277 276 274 270 267 269 270 273 275 273 271 268 264
232 224 235 256 262 271 270 260 261 256 254 256 255 257 260 261 269 278 286 287 286 287 288 287 283 277 276 274 269 268 269 272 272 273 273 271 266 264
241 248 251 257 262 263 257 254 250 249 253 259 273 282 285 284 281 279 279 278 277 278 275 271 267 266 265 264 263 263 267 268 269 270 271 272 267 263
255 253 247 252 250 246 254 270 284 287 285 283 277 280 278 278 277 277 276 276 272 270 269 266 266 264 262 262 264 266 264 265 274 272 270 270 267 261
256 251 256 264 269 263 255 263 264 267 267 270 271 279 281 285 285 282 281 278 274 271 268 266 265 263 263 263 263 265 263 269 272 275 273 270 265 261
241 242 243 245 242 250 260 270 275 278 277 279 282 281 285 291 292 290 285 279 277 276 272 268 263 260 262 258 262 262 263 269 269 270 271 268 265 260
240 240 242 247 259 269 277 281 282 284 284 282 284 287 289 290 292 289 281 276 279 275 271 266 260 252 258 258 260 266 262 268 266 269 269 266 263 261
240 243 248 255 268 274 277 280 282 283 284 284 287 288 285 285 281 279 282 277 276 275 270 260 255 250 256 258 260 261 264 261 262 268 264 263 265 265
251 255 261 265 269 275 279 279 280 282 285 285 284 278 276 281 287 292 284 278 281 275 264 257 253 255 258 254 253 265 255 259 265 267 264 262 264 266